sat.trackr.live / text

‹ back to catalog

STARLINK-30812

NORAD 58168 · 2023-166U

PAYLOAD ACTIVE UNKNOWN

§ Identity

Operator
Country
US
Launch date
2023-10-29
Launch site
AFWTR
Launch vehicle
Mass (kg)
RCS (m²)

Purposes: comms

External: N2YO · Heavens-Above · Gunter

§ Orbital elements

Epoch: 2026-05-25T04:17:43.256832Z

Period
94.11 min
Inclination
53.1608°
Eccentricity
0.0000954
Mean motion
15.30197077 rev/d
Perigee alt
474.6 km
Apogee alt
475.9 km
Semi-major
6,853.4 km
B*
2.6712e-5
RAAN
224.0845°
Arg perigee
75.0058°
Mean anomaly
285.1049°
Rev number
14,474

§ Raw data

STARLINK-308121 58168U 23166U   26145.17897288  .00000432  00000+0  26712-4 0  99942 58168  53.1608 224.0845 0000954  75.0058 285.1049 15.30197077144740

JSON: /api/v1/satellites/58168 · /tle

For live sub-satellite position, see the globe view (requires WebGL).

§ Visibility from observer

Set your observer location to see the next 7 days of passes ≥ 10°. The values pass through the URL so the page stays shareable.

No JS? Fill the form by hand. The geolocation button needs JavaScript.